User: anonymous   Login
Location: Chervonnoye
(48.6000°N, 34.4000°E)
Time: 22:51:40
(UTC+00:00)
Language:

TIGRISAT - Orbit

View from above orbital plane
View from above orbital plane
View from above satellite
View from above satellite

Ground track
Ground track

The orbit data is extracted from the following two-line orbital elements,

1 40043U 14033AK  21335.52083502  .00000408  00000-0  66486-4 0  9997
2 40043  97.6588 170.4519 0061027  77.7852 283.0183 14.74645427400457
Epoch (UTC): 01 December 2021 12:30:00
Eccentricity: 0.0061027
inclination: 97.6588°
perigee height: 603 km
apogee height: 689 km
right ascension of ascending node: 170.4519°
argument of perigee: 77.7852°
revolutions per day: 14.74645427
mean anomaly at epoch: 283.0183°
orbit number at epoch: 40045

The dashed part of the orbit path shows where the satellite is in the earth's shadow,  

DLR